Starlink 31384

operational
NORAD ID: 58983 Int'l Des: 2024-031 Owner: SPXS Country: US Constellation: starlink
LEOCIRCULAR

Über Starlink 31384

Beschreibung wird geladen...

Live-Position

3D-Globus wird geladen...

Nächste Überflüge

Höhenverlauf

Altitude vs Time

uPlot chart will show altitude changes over time

Zweizeiliger Elementsatz

1 58983U 24031U 25304.84857758 .00004263 00000-0 15609-3 0 9998
2 58983 53.1597 175.3864 0001641 101.3537 258.7648 15.30176486 96782
Epoch: 31. Okt. 2025 • Age: 8 hours

Aktueller Status

Höhe 481.5 km
Geschwindigkeit 7.62 km/s
Subsatellitenpunkt -20.01°S, 56.03°E
Startdatum 15. Feb. 2024
Alter 1.7 years
Typ internet

Technische Details

Klassifizierung Payload
Masse 730.00 kg
Trockenmasse 700.00 kg
Gesamtmasse 730.00 kg
Länge 0.30 m
Durchmesser 4.10 m
Spannweite 29.00 m
Form Box + pan
Hersteller SPXS
Bus-Typ Starlink V2M
Phasenstatus In Orbit
Besitzer/Staat SPXS/US

Große Konstellationen

Loading constellations...